This demonstration page uses our WeatherBlox Daily Observations layout. Learn more.

Left ArrowRight Arrow

34.02893, -84.19858

Hourly Observations for July 5, 2021

Temp ( °F °C ) Dew Point ( °F °C ) Humidity (%) Winds ( mph kmh ) Pressure ( in mb ) Visibility ( mi km ) Precip ( " mm )
12:53 am 00:53 Hazy 70 21.1 64 17.8 82 82 Calm 30.00 1016 4 6 0.00 0.00
1:53 am 01:53 Partly Cloudy with Mist and Fog 68 20 64 17.8 87 87 Calm 29.99 1016 4 6 0.00 0.00
2:53 am 02:53 Clear with Mist and Fog 68 20 65 18.3 90 90 Calm 29.98 1015 3 4 0.00 0.00
3:16 am 03:16 Clear with Mist and Fog 67 19.4 65 18.3 93 93 Calm 30.01 1016 3 5 0.00 0.00
3:53 am 03:53 Clear with Mist and Fog 67 19.4 64 17.8 91 91 Calm 29.98 1015 3 5 0.00 0.00
4:01 am 04:01 Clear with Mist and Fog 67 19.4 64 17.8 91 91 Calm 30.00 1016 3 4 0.00 0.00
4:34 am 04:34 Clear with Mist and Fog 67 19.4 65 18.3 93 93 Calm 30.01 1016 2 2 0.00 0.00
4:53 am 04:53 Clear with Mist and Fog 66 18.9 64 17.8 93 93 Calm 29.98 1015 3 4 0.00 0.00
5:04 am 05:04 Clear with Mist and Fog 66 18.9 63 17.2 90 90 Calm 30.00 1016 3 5 0.00 0.00
5:16 am 05:16 Clear with Mist and Fog 66 18.9 64 17.8 93 93 Calm 30.01 1016 2 3 0.00 0.00
5:33 am 05:33 Clear with Mist and Fog 65 18.3 64 17.8 97 97 Calm 30.01 1016 1 2 0.00 0.00
5:53 am 05:53 Clear with Mist and Fog 65 18.3 64 17.8 97 97 Calm 30.00 1016 2 3 0.00 0.00
6:50 am 06:50 Sunny with Mist and Fog 64 18 64 18 100 100 Calm 30.04 1017 4 6 0.00 0.00
6:53 am 06:53 Sunny with Mist and Fog 65 18.3 64 17.8 97 97 Calm 30.02 1017 4 6 0.00 0.00
7:53 am 07:53 Sunny with Mist and Fog 71 21.7 67 19.4 87 87 Calm 30.03 1017 4 6 0.00 0.00
8:53 am 08:53 Hazy 76 24.4 66 18.9 72 72 Calm 30.04 1017 4 6 0.00 0.00
9:53 am 09:53 Sunny 79 26.1 64 17.8 60 60 VRB 3 6 30.05 1018 8 13 0.00 0.00
10:53 am 10:53 Sunny 81 27.2 63 17.2 54 54 S 5 7 30.06 1018 10 16 0.00 0.00
11:53 am 11:53 Sunny 85 29.4 63 17.2 48 48 undefined N/A 30.05 1018 10 16 0.00 0.00
12:53 pm 12:53 Mostly Sunny 85 29.4 62 16.7 46 46 VRB 7 11 30.06 1018 10 16 0.00 0.00
1:53 pm 13:53 Mostly Sunny 87 30.6 61 16.1 42 42 undefined N/A 30.05 1018 10 16 0.00 0.00
2:53 pm 14:53 Sunny 88 31.1 62 16.7 42 42 undefined N/A 30.03 1017 10 16 0.00 0.00
3:53 pm 15:53 Mostly Sunny 87 30.6 61 16.1 42 42 undefined N/A 30.01 1016 10 16 0.00 0.00
4:53 pm 16:53 Partly Cloudy 88 31.1 61 16.1 40 40 SE 6 9 30.01 1016 10 16 0.00 0.00
5:53 pm 17:53 Partly Cloudy 87 30.6 61 16.1 42 42 SSE 6 9 30.01 1016 10 16 0.00 0.00
6:53 pm 18:53 Mostly Sunny 84 28.9 62 16.7 48 48 SSE 6 9 30.02 1017 10 16 0.00 0.00
7:53 pm 19:53 Sunny 83 28.3 63 17.2 51 51 SSE 5 7 30.01 1016 10 16 0.00 0.00
8:53 pm 20:53 Clear 80 26.7 62 16.7 54 54 SSE 3 6 30.02 1017 10 16 0.00 0.00
9:53 pm 21:53 Partly Cloudy 76 24.4 64 17.8 67 67 Calm 30.04 1017 10 16 0.00 0.00
10:53 pm 22:53 Clear 74 23.3 64 17.8 71 71 Calm 30.06 1018 8 13 0.00 0.00
11:53 pm 23:53 Clear 73 22.8 64 17.8 74 74 Calm 30.07 1018 7 11 0.00 0.00

Powered by AerisWeather